Time,TemperatureF,DewpointF,PressureIn,WindDirection,WindDirectionDegrees,WindSpeedMPH,WindSpeedGustMPH,Humidity,HourlyPrecipIn,Conditions,Clouds,dailyrainin,SoftwareType,DateUTC
2014-11-27 00:01:00,29.0,25.1,30.15,NE,55,0.0,1.0,85,0.00,,---,0.00,VWS V15.00,2014-11-27 05:01:00,
2014-11-27 00:10:00,28.9,25.0,30.15,NE,55,0.0,2.0,85,0.00,,---,0.00,VWS V15.00,2014-11-27 05:10:00,
2014-11-27 00:20:00,28.8,24.9,30.15,NE,53,0.0,2.0,85,0.00,,---,0.00,VWS V15.00,2014-11-27 05:20:00,
2014-11-27 00:30:00,28.5,24.9,30.14,NE,53,1.0,1.0,86,0.00,,---,0.00,VWS V15.00,2014-11-27 05:30:00,
2014-11-27 00:40:00,28.4,25.0,30.15,NE,53,0.0,1.0,87,0.00,,---,0.00,VWS V15.00,2014-11-27 05:40:00,
2014-11-27 00:50:00,28.3,25.2,30.14,NE,53,0.0,1.0,88,0.00,,---,0.00,VWS V15.00,2014-11-27 05:50:00,
2014-11-27 01:00:00,28.2,24.8,30.14,NE,53,0.0,1.0,87,0.00,,---,0.00,VWS V15.00,2014-11-27 06:00:00,
2014-11-27 01:10:00,28.2,25.1,30.14,NE,53,1.0,1.0,88,0.00,,---,0.00,VWS V15.00,2014-11-27 06:10:00,
2014-11-27 01:20:00,28.2,24.8,30.14,NE,53,0.0,1.0,87,0.00,,---,0.00,VWS V15.00,2014-11-27 06:20:00,
2014-11-27 01:30:00,28.2,24.8,30.14,West,281,1.0,3.0,87,0.00,,---,0.00,VWS V15.00,2014-11-27 06:30:00,
2014-11-27 01:40:00,28.1,24.7,30.14,West,281,1.0,2.0,87,0.00,,---,0.00,VWS V15.00,2014-11-27 06:40:00,
2014-11-27 01:50:00,28.0,24.6,30.15,West,281,1.0,2.0,87,0.00,,---,0.00,VWS V15.00,2014-11-27 06:50:00,
2014-11-27 02:00:00,27.9,24.5,30.15,West,281,0.0,2.0,87,0.00,,---,0.00,VWS V15.00,2014-11-27 07:00:00,
2014-11-27 02:10:00,27.9,24.5,30.15,West,281,0.0,1.0,87,0.00,,---,0.00,VWS V15.00,2014-11-27 07:10:00,
2014-11-27 02:20:00,27.8,24.4,30.16,West,281,0.0,1.0,87,0.00,,---,0.00,VWS V15.00,2014-11-27 07:20:00,
2014-11-27 02:30:00,27.6,24.5,30.17,West,281,0.0,1.0,88,0.00,,---,0.00,VWS V15.00,2014-11-27 07:30:00,
2014-11-27 02:40:00,27.7,24.6,30.17,West,268,0.0,2.0,88,0.00,,---,0.00,VWS V15.00,2014-11-27 07:40:00,
2014-11-27 02:50:00,27.8,25.0,30.17,West,281,1.0,2.0,89,0.00,,---,0.00,VWS V15.00,2014-11-27 07:50:00,
2014-11-27 03:00:00,28.0,25.2,30.17,West,276,2.0,2.0,89,0.00,,---,0.00,VWS V15.00,2014-11-27 08:00:00,
2014-11-27 03:10:00,28.1,25.0,30.18,West,276,0.0,2.0,88,0.00,,---,0.00,VWS V15.00,2014-11-27 08:10:00,
2014-11-27 03:20:00,28.1,25.0,30.18,West,276,0.0,1.0,88,0.00,,---,0.00,VWS V15.00,2014-11-27 08:20:00,
2014-11-27 03:30:00,28.2,25.1,30.18,West,276,0.0,0.0,88,0.00,,---,0.00,VWS V15.00,2014-11-27 08:30:00,
2014-11-27 03:40:00,28.3,25.2,30.18,West,276,0.0,0.0,88,0.00,,---,0.00,VWS V15.00,2014-11-27 08:40:00,
2014-11-27 03:50:00,28.3,25.2,30.19,West,276,0.0,1.0,88,0.00,,---,0.00,VWS V15.00,2014-11-27 08:50:00,
2014-11-27 04:00:00,28.4,25.3,30.19,West,276,1.0,2.0,88,0.00,,---,0.00,VWS V15.00,2014-11-27 09:00:00,
2014-11-27 04:10:00,28.4,25.3,30.19,West,276,0.0,2.0,88,0.00,,---,0.00,VWS V15.00,2014-11-27 09:10:00,
2014-11-27 04:20:00,28.5,25.4,30.19,WNW,296,1.0,1.0,88,0.00,,---,0.00,VWS V15.00,2014-11-27 09:20:00,
2014-11-27 04:30:00,28.5,25.1,30.20,WSW,246,0.0,2.0,87,0.00,,---,0.00,VWS V15.00,2014-11-27 09:30:00,
2014-11-27 04:40:00,28.6,25.2,30.20,WSW,246,0.0,1.0,87,0.00,,---,0.00,VWS V15.00,2014-11-27 09:40:00,
2014-11-27 04:50:00,28.7,25.3,30.21,WSW,246,0.0,1.0,87,0.00,,---,0.00,VWS V15.00,2014-11-27 09:50:00,
2014-11-27 05:00:00,28.8,25.4,30.21,WNW,286,0.0,4.0,87,0.00,,---,0.00,VWS V15.00,2014-11-27 10:00:00,
2014-11-27 05:10:00,28.9,25.5,30.22,ENE,62,1.0,3.0,87,0.00,,---,0.00,VWS V15.00,2014-11-27 10:10:00,
2014-11-27 05:20:00,29.0,25.4,30.22,SE,138,0.0,2.0,86,0.00,,---,0.00,VWS V15.00,2014-11-27 10:20:00,
2014-11-27 05:30:00,29.0,25.4,30.22,NNW,340,0.0,2.0,86,0.00,,---,0.00,VWS V15.00,2014-11-27 10:30:00,
2014-11-27 05:40:00,29.1,25.4,30.23,ENE,74,0.0,2.0,86,0.00,,---,0.00,VWS V15.00,2014-11-27 10:40:00,
2014-11-27 05:50:00,29.1,25.4,30.23,NE,47,1.0,3.0,86,0.00,,---,0.00,VWS V15.00,2014-11-27 10:50:00,
2014-11-27 06:00:00,29.2,25.3,30.23,NE,39,0.0,3.0,85,0.00,,---,0.00,VWS V15.00,2014-11-27 11:00:00,
2014-11-27 06:10:00,29.3,25.4,30.24,ENE,65,0.0,1.0,85,0.00,,---,0.00,VWS V15.00,2014-11-27 11:10:00,
2014-11-27 06:20:00,29.3,25.4,30.24,ENE,66,0.0,1.0,85,0.00,,---,0.00,VWS V15.00,2014-11-27 11:20:00,
2014-11-27 06:30:00,29.3,25.4,30.25,WNW,293,0.0,4.0,85,0.00,,---,0.00,VWS V15.00,2014-11-27 11:30:00,
2014-11-27 06:40:00,29.3,25.4,30.25,WNW,293,0.0,1.0,85,0.00,,---,0.00,VWS V15.00,2014-11-27 11:40:00,
2014-11-27 06:50:00,29.4,25.5,30.26,WNW,293,0.0,1.0,85,0.00,,---,0.00,VWS V15.00,2014-11-27 11:50:00,
2014-11-27 07:00:00,29.4,25.5,30.27,WSW,256,0.0,2.0,85,0.00,,---,0.00,VWS V15.00,2014-11-27 12:00:00,
2014-11-27 07:10:00,29.5,25.3,30.27,West,261,0.0,2.0,84,0.00,,---,0.00,VWS V15.00,2014-11-27 12:10:00,
2014-11-27 07:20:00,29.5,25.3,30.27,SSW,208,0.0,2.0,84,0.00,,---,0.00,VWS V15.00,2014-11-27 12:20:00,
2014-11-27 07:30:00,29.6,25.6,30.28,NW,312,0.0,2.0,85,0.00,,---,0.00,VWS V15.00,2014-11-27 12:30:00,
2014-11-27 07:40:00,29.6,25.4,30.28,NW,312,0.0,1.0,84,0.00,,---,0.00,VWS V15.00,2014-11-27 12:40:00,
2014-11-27 07:50:00,29.6,25.4,30.29,East,96,0.0,4.0,84,0.00,,---,0.00,VWS V15.00,2014-11-27 12:50:00,
2014-11-27 08:01:00,29.7,25.8,30.30,WSW,246,0.0,2.0,85,0.00,,---,0.00,VWS V15.00,2014-11-27 13:01:00,
2014-11-27 08:10:00,29.7,25.2,30.30,ENE,61,0.0,5.0,83,0.00,,---,0.00,VWS V15.00,2014-11-27 13:10:00,
2014-11-27 08:20:00,29.9,25.4,30.31,SW,217,0.0,4.0,83,0.00,,---,0.00,VWS V15.00,2014-11-27 13:20:00,
2014-11-27 08:30:00,29.9,25.1,30.31,ENE,61,0.0,2.0,82,0.00,,---,0.00,VWS V15.00,2014-11-27 13:30:00,
2014-11-27 08:40:00,30.0,25.2,30.31,NW,315,0.0,4.0,82,0.00,,---,0.00,VWS V15.00,2014-11-27 13:40:00,
2014-11-27 08:50:00,30.1,25.0,30.32,NW,320,1.0,3.0,81,0.00,,---,0.00,VWS V15.00,2014-11-27 13:50:00,
2014-11-27 09:00:00,30.2,25.1,30.32,East,81,0.0,2.0,81,0.00,,---,0.00,VWS V15.00,2014-11-27 14:00:00,
2014-11-27 09:10:00,30.3,25.2,30.32,ESE,116,0.0,2.0,81,0.00,,---,0.00,VWS V15.00,2014-11-27 14:10:00,
2014-11-27 09:20:00,30.5,25.1,30.33,SW,234,0.0,4.0,80,0.00,,---,0.00,VWS V15.00,2014-11-27 14:20:00,
2014-11-27 09:30:00,31.1,25.7,30.33,SE,138,0.0,3.0,80,0.00,,---,0.00,VWS V15.00,2014-11-27 14:30:00,
2014-11-27 09:40:00,31.1,25.4,30.33,NE,36,2.0,7.0,79,0.00,,---,0.00,VWS V15.00,2014-11-27 14:40:00,
2014-11-27 09:50:00,31.3,25.2,30.33,NW,318,3.0,6.0,78,0.00,,---,0.00,VWS V15.00,2014-11-27 14:50:00,
2014-11-27 10:00:00,31.6,25.9,30.34,ENE,77,1.0,4.0,79,0.00,,---,0.00,VWS V15.00,2014-11-27 15:00:00,
2014-11-27 10:10:00,32.3,25.3,30.34,WNW,302,2.0,5.0,75,0.00,,---,0.00,VWS V15.00,2014-11-27 15:10:00,
2014-11-27 10:20:00,32.6,25.6,30.34,West,271,1.0,4.0,75,0.00,,---,0.00,VWS V15.00,2014-11-27 15:20:00,
2014-11-27 10:30:00,32.7,25.3,30.35,ESE,103,1.0,5.0,74,0.00,,---,0.00,VWS V15.00,2014-11-27 15:30:00,
2014-11-27 10:40:00,33.3,25.9,30.35,ENE,63,3.0,4.0,74,0.00,,---,0.00,VWS V15.00,2014-11-27 15:40:00,
2014-11-27 10:50:00,32.9,25.2,30.36,NW,317,0.0,6.0,73,0.00,,---,0.00,VWS V15.00,2014-11-27 15:50:00,
2014-11-27 11:00:00,32.9,25.9,30.36,NNW,327,1.0,7.0,75,0.00,,---,0.00,VWS V15.00,2014-11-27 16:00:00,
2014-11-27 11:10:00,33.8,26.1,30.37,West,271,4.0,6.0,73,0.00,,---,0.00,VWS V15.00,2014-11-27 16:10:00,
2014-11-27 11:21:00,33.7,25.3,30.36,WSW,246,2.0,10.0,71,0.00,,---,0.00,VWS V15.00,2014-11-27 16:21:00,
2014-11-27 11:30:00,33.5,25.5,30.37,North,355,1.0,8.0,72,0.00,,---,0.00,VWS V15.00,2014-11-27 16:30:00,
2014-11-27 11:40:00,33.8,25.4,30.36,WNW,302,4.0,6.0,71,0.00,,---,0.00,VWS V15.00,2014-11-27 16:40:00,
2014-11-27 11:50:00,33.9,25.2,30.36,West,267,4.0,7.0,70,0.00,,---,0.00,VWS V15.00,2014-11-27 16:50:00,
2014-11-27 12:01:00,33.7,25.0,30.36,East,91,1.0,7.0,70,0.00,,---,0.00,VWS V15.00,2014-11-27 17:01:00,
2014-11-27 12:10:00,34.1,25.7,30.36,NNW,339,2.0,7.0,71,0.00,,---,0.00,VWS V15.00,2014-11-27 17:10:00,
2014-11-27 12:20:00,34.3,25.5,30.36,WSW,250,1.0,5.0,70,0.00,,---,0.00,VWS V15.00,2014-11-27 17:20:00,